Вернуться в каталог

STARLINK-30761

АктивенСвязьVLEO
NORAD 58134·PAYLOAD·🇺🇸 United States

Запущен Oct 22, 2023 с Cape Canaveral Space Force Station

Loading…

Ближайшие Пролёты (ближайшие 24 часа)

TLE

СвежийSource: CelesTrak SupGP

Эпоха: Sep 15, 2026, 02:12 UTC

1 58134C 23162S   26258.09215278  .00027678  00000+0  10027-2 0  2581
2 58134  42.9995 142.9539 0001364 272.9636  38.7316 15.27559840    18

Отслеживайте STARLINK-30761 в реальном времени с AllMySat

Download on the App Store